Chicago DuPage, IL

6:56 AM CDT on August 20, 2017 (GMT -0500)
Du Page

Weather History for KDPA - July, 2013

Change the Weather History Date:

Thursday, July 4, 2013

  Actual Average Record
Temperature  
Mean Temperature 68 °F 74 °F  
Max Temperature 82 °F 85 °F 98 °F (2012)
Min Temperature 53 °F 63 °F 50 °F (2008)
Degree Days  
Heating Degree Days 0 0  
Month to date heating degree days 5 0  
Since 1 June heating degree days 59 36  
Since 1 July heating degree days 5 0  
Cooling Degree Days 3 9  
Month to date cooling degree days 3 36  
Year to date cooling degree days 219 260  
Since 1 June cooling degree days 142 214  
Growing Degree Days 18 (Base 50)    
Moisture  
Dew Point 60 °F    
Average Humidity 81    
Maximum Humidity 100    
Minimum Humidity 54    
Precipitation  
Precipitation 0.00 in 0.08 in 0.65 in (2007)
Month to date precipitation 0.25 0.29  
Year to date precipitation 20.44 17.20  
Sea Level Pressure  
Sea Level Pressure 30.07 in    
Wind  
Wind Speed 6 mph (South)    
Max Wind Speed 15 mph    
Max Gust Speed 20 mph    
Visibility 7 miles    
Events Fog    
T = Trace of Precipitation, MM = Missing Value Source: NWS Daily Summary

Daily Weather History Graph

Daily Weather History Graph

Search for Another Location

Airport or City:

Trip Planner

Search our weather history database for the weather conditions in past years. The results will help you decide how hot, cold, wet, or windy it might be!

Date:

Astronomy

Jul. 04, 2013 Rise Set
Actual Time 5:23 AM CDT 8:31 PM CDT
Civil Twilight 4:49 AM CDT 9:05 PM CDT
Nautical Twilight 4:05 AM CDT 9:48 PM CDT
Astronomical Twilight 3:13 AM CDT 10:40 PM CDT
Moon 2:41 AM CDT (7/4) 5:34 PM CDT (7/4)
Length of Visible Light 16h 16m
Length of Day
15h 08m
Waning Crescent, 11% of the Moon is Illuminated
Jul 4
Waning Crescent
Jul 8
New
Jul 15
First Quarter
Jul 22
Full
Jul 29
Last Quarter

Hourly Weather History & Observations

Time (CDT) Temp. Heat Index Dew Point Humidity Pressure Visibility Wind Dir Wind Speed Gust Speed Precip Events Conditions
12:07 AM 60.8 °F - 60.8 °F 100% 30.08 in 7.0 mi SSE 3.5 mph - N/A   Clear
12:52 AM 57.9 °F - 57.9 °F 100% 30.07 in 7.0 mi South 3.5 mph - N/A   Clear
12:59 AM 59.0 °F - 57.2 °F 94% 30.07 in 0.2 mi South 4.6 mph - N/A Fog Fog
1:09 AM 59.0 °F - 57.2 °F 94% 30.07 in 1.0 mi South 4.6 mph - N/A   Mist
1:12 AM 57.2 °F - 57.2 °F 100% 30.07 in 7.0 mi South 3.5 mph - N/A   Clear
1:52 AM 57.0 °F - 55.9 °F 96% 30.07 in 7.0 mi Calm Calm - N/A   Clear
2:52 AM 55.9 °F - 55.0 °F 97% 30.07 in 7.0 mi Calm Calm - N/A Fog Shallow Fog
2:59 AM 55.4 °F - 53.6 °F 94% 30.07 in 5.0 mi Calm Calm - N/A Fog Shallow Fog
3:52 AM 54.0 °F - 54.0 °F 100% 30.07 in 3.0 mi Calm Calm - N/A Fog Shallow Fog
4:52 AM 54.0 °F - 53.1 °F 97% 30.08 in 0.2 mi Calm Calm - N/A Fog Shallow Fog
5:52 AM 55.0 °F - 54.0 °F 96% 30.09 in 0.2 mi Calm Calm - N/A Fog Fog
6:30 AM 55.4 °F - 55.4 °F 100% 30.09 in 1.0 mi Calm Calm - N/A   Mist
6:37 AM 57.2 °F - 57.2 °F 100% 30.09 in 1.0 mi Calm Calm - N/A   Scattered Clouds
6:52 AM 59.0 °F - 57.9 °F 96% 30.09 in 2.5 mi Calm Calm - N/A   Partly Cloudy
7:19 AM 60.8 °F - 60.8 °F 100% 30.10 in 3.0 mi South 4.6 mph - N/A   Partly Cloudy
7:52 AM 63.0 °F - 61.0 °F 93% 30.10 in 5.0 mi South 4.6 mph - N/A   Mostly Cloudy
8:52 AM 68.0 °F - 62.1 °F 81% 30.10 in 8.0 mi SSW 4.6 mph - N/A   Clear
9:52 AM 73.0 °F - 61.0 °F 66% 30.09 in 10.0 mi SSW 3.5 mph - N/A   Clear
10:52 AM 75.9 °F - 62.1 °F 62% 30.09 in 10.0 mi South 5.8 mph - N/A   Clear
11:52 AM 78.1 °F - 64.0 °F 62% 30.09 in 10.0 mi Variable 4.6 mph - N/A   Clear
12:52 PM 80.1 °F 81.7 °F 64.0 °F 58% 30.08 in 10.0 mi South 11.5 mph - N/A   Partly Cloudy
1:52 PM 81.0 °F 82.2 °F 63.0 °F 54% 30.07 in 10.0 mi South 10.4 mph - N/A   Scattered Clouds
2:52 PM 81.0 °F 82.2 °F 63.0 °F 54% 30.06 in 10.0 mi South 10.4 mph - N/A   Partly Cloudy
3:52 PM 79.0 °F - 63.0 °F 58% 30.06 in 10.0 mi South 8.1 mph - N/A   Mostly Cloudy
4:52 PM 81.0 °F 82.2 °F 63.0 °F 54% 30.04 in 10.0 mi SSW 10.4 mph - N/A   Partly Cloudy
5:52 PM 80.1 °F 81.7 °F 64.0 °F 58% 30.03 in 10.0 mi South 9.2 mph - N/A   Clear
6:52 PM 77.0 °F - 63.0 °F 62% 30.04 in 10.0 mi South 9.2 mph - N/A   Clear
7:52 PM 75.0 °F - 63.0 °F 66% 30.04 in 10.0 mi South 9.2 mph - N/A   Clear
8:52 PM 71.1 °F - 62.1 °F 73% 30.04 in 10.0 mi South 4.6 mph - N/A   Clear
9:52 PM 71.1 °F - 62.1 °F 73% 30.06 in 10.0 mi South 6.9 mph - N/A   Mostly Cloudy
10:52 PM 69.1 °F - 61.0 °F 75% 30.06 in 9.0 mi SSE 6.9 mph - N/A   Clear
11:52 PM 68.0 °F - 61.0 °F 78% 30.06 in 7.0 mi South 4.6 mph - N/A   Clear